Location: ????? ???????
(25.7275°N, 32.5929°E)
Time: 11:04:34
(UTC+00:00)

CZ-4B R/B - Pass Details

Date: 02 March 2021
Orbit: 388 x 454 km, 97.6° (Epoch: 15 April)

Event Time Altitude Azimuth Distance (km) Brightness Sun altitude
Rises 16:21:29 0° 354° (N) 2,286 5.0 -7.4°
Reaches altitude 10° 16:23:41 10° 339° (NNW) 1,434 4.2 -7.9°
Maximum altitude 16:26:08 22° 285° (WNW) 920 4.0 -8.5°
Drops below altitude 10° 16:28:37 10° 232° (SW) 1,450 4.9 -9.0°
Sets 16:30:52 0° 216° (SW) 2,318 5.6 -9.6°
